Location: Maiden
(35.5760°N, 81.2120°W)
Time: 00:57:35
(UTC-04:00)

A-11 Canister half - Pass Details

Date: 11 August 2020
Orbit: 1527 x 1682 km, 47.3° (Epoch: 25 September)

Event Time Altitude Azimuth Distance (km) Brightness Sun altitude
Rises 18:36:06 0° 303° (WNW) 4,930 12.7 19.4°
Reaches altitude 10° 18:39:19 10° 305° (NW) 3,931 12.4 18.8°
Maximum altitude 18:49:27 80° 33° (NNE) 1,665 9.5 16.7°
Drops below altitude 10° 18:59:14 10° 120° (ESE) 3,812 10.6 14.7°
Sets 19:02:17 0° 122° (ESE) 4,775 11.0 14.1°
